COSMOS 1275 DEB, 12675

Orbit data source: Space-Track

COSMOS 1275 DEB, 12675 is space debris in LEO originally from a launch on Thu, 04 Jun 1981 UTC launched from the Plesetsk Missile And Space Complex (PKMTR). Debris objects in space refer to the collection of defunct objects orbiting the Earth. Examples of debris include non-operational satellites, rocket bodies, and fragments generated from explosions, collisions, or faulty payload assembly.

Loading next visibility...
COSMOS 1275 DEB details
Identifier
12675, 1981-053AF
Orbit
LEO
Last TLE update1 day ago
Origin
Flag of CISVMF (CIS)
ManufacturerUnknown
MissionSpacecraft
Bus & MotorUnknown
MassUnknown
Launch date (UTC)
1981-06-04 (44 years ago)
Launch vehicleUnknown
Launch site
Plesetsk Missile And Space Complex (PKMTR)
Object type
Payload
Rocket body
Debris
Shape & HBRUnknown
Radar Cross SectionMedium (>0.1 m² and <1 m²)

Expand to show TLE details & history

TLE from 1 day ago
0 COSMOS 1275 DEB
1 12675U 81053AF  25024.76294847  .00001352  00000-0  12659-2 0  9994
2 12675  82.9356 282.8648 0064540 277.8426 144.3996 13.80147187178393
Epoch: 2025-01-24T18:18Z
Definitive object data (Epoch: 2025-01-24T18:18:38.747Z)
Latitude61.93021°
Longitude-102.75121°
Altitude1,012.611 km
Speed7.332 km/s
True Right ascension19h 44m 55s
True Declination61° 47' 32"
Sunlit
Object was in daylight at TLE epoch
Visualization TLE readout
Latitude21.63724°
Longitude-114.06793°
Altitude979.41 km
Speed7.357 km/s
Apparent Right ascension17h 11m 42s
Apparent Declination-30° 44' 38"
Sunlit
Object is in daylight
Visualization observer readout
Local Sidereal Time19:49:02
Azimuth213.64° SW
Elevation10.478°
Doppler factor1
Orbital elements
Apogee altitude1,007.87 km
Perigee altitude913.143 km
Semi-major axis7,338.643 km
Eccentricity0.006454
Inclination82.9356°
RAAN282.8648°
Arg. of periapsis277.8426°
True anomaly144.82732°
Mean anomaly144.3996°
Eccentric anomaly144.61374°
Mean motion3.45239 °/min
BSTAR0.0012659
Orbital period104.28 mins
Loading maneuver chart data...
Loading historical data...
Loading historical data...
Loading historical data...
Loading historical data...
Loading historical data...
Loading historical data...
Loading historical data...

COSMOS 1275 DEB Visibility forecast

Observer location: undefined°, undefined

Span
Click to sort rows by Start time (UTC) header in descending order
Start Az.
Max El. time (UTC)
Max El. Az.
Max El.
End time (UTC)
End Az.
11 mins2025-01-25 18:28:15.152Z213.514° SW2025-01-25 18:34:15.152Z288.204° WNW33.705°2025-01-25 18:39:15.152Z350.264° N
8 mins2025-01-26 03:40:15.152Z29.635° NE2025-01-26 03:44:15.152Z76.704° E21.16°2025-01-26 03:48:15.152Z118.679° SE
11 mins2025-01-26 05:24:15.152Z340.571° N2025-01-26 05:29:15.152Z269.715° W38.979°2025-01-26 05:35:15.152Z193.714° SSW
10 mins2025-01-26 17:06:15.152Z157.137° SSE2025-01-26 17:10:15.152Z103.148° ESE36.48°2025-01-26 17:16:15.152Z19.786° NNE
|